10-04-2023, 00:00:03,    166,    0.1,    7.5,   0.00,   0.00, 1011.3,   78.2, -999.0
10-04-2023, 00:00:13,    166,    0.0,    7.6,   0.00,   0.00, 1011.3,   78.3, -999.0
10-04-2023, 00:00:23,    167,    0.1,    7.6,   0.00,   0.00, 1011.3,   78.6, -999.0
10-04-2023, 00:00:33,    167,    0.0,    7.6,   0.00,   0.00, 1011.2,   78.6, -999.0
10-04-2023, 00:00:43,    167,    0.0,    7.6,   0.00,   0.00, 1011.3,   79.1, -999.0
10-04-2023, 00:00:53,    127,    0.9,    7.7,   0.00,   0.01, 1011.4,   79.3, -999.0
10-04-2023, 00:01:03,    164,    1.0,    7.7,   0.00,   0.00, 1011.4,   79.1, -999.0
10-04-2023, 00:01:13,    165,    1.5,    7.7,   0.00,   0.00, 1011.3,   79.2, -999.0
10-04-2023, 00:01:23,    181,    1.8,    7.7,   0.00,   0.00, 1011.3,   78.8, -999.0
10-04-2023, 00:01:33,    180,    0.3,    7.8,   0.00,   0.00, 1011.3,   78.9, -999.0
10-04-2023, 00:01:43,    156,    0.0,    7.7,   0.00,   0.00, 1011.2,   78.8, -999.0
10-04-2023, 00:01:53,    156,    0.5,    7.8,   0.00,   0.01, 1011.3,   79.1, -999.0
10-04-2023, 00:02:03,    156,    1.0,    7.7,   0.00,   0.00, 1011.3,   78.6, -999.0
10-04-2023, 00:02:13,    156,    0.4,    7.7,   0.00,   0.00, 1011.3,   78.6, -999.0
10-04-2023, 00:02:23,    157,    0.3,    7.8,   0.00,   0.00, 1011.3,   78.7, -999.0
10-04-2023, 00:02:33,    157,    0.0,    7.7,   0.00,   0.00, 1011.2,   78.6, -999.0
10-04-2023, 00:02:43,    156,    0.0,    7.7,   0.00,   0.00, 1011.2,   78.7, -999.0
10-04-2023, 00:02:53,    156,    0.0,    7.7,   0.00,   0.01, 1011.2,   78.8, -999.0
10-04-2023, 00:03:03,    156,    0.0,    7.7,   0.00,   0.00, 1011.2,   78.9, -999.0
10-04-2023, 00:03:13,    156,    0.1,    7.8,   0.00,   0.00, 1011.2,   79.1, -999.0
10-04-2023, 00:03:23,    156,    0.0,    7.8,   0.00,   0.00, 1011.1,   79.0, -999.0
10-04-2023, 00:03:33,    134,    0.9,    7.8,   0.00,   0.00, 1011.3,   79.5, -999.0
10-04-2023, 00:03:42,    148,    1.0,    7.8,   0.00,   0.00, 1011.2,   79.1, -999.0
10-04-2023, 00:03:53,    149,    0.1,    7.7,   0.00,   0.01, 1011.1,   78.8, -999.0
10-04-2023, 00:04:03,    146,    0.0,    7.7,   0.00,   0.00, 1011.0,   78.8, -999.0
10-04-2023, 00:04:13,    147,    0.8,    7.8,   0.00,   0.00, 1011.2,   79.2, -999.0
10-04-2023, 00:04:22,    146,    1.2,    7.7,   0.00,   0.00, 1011.2,   78.7, -999.0
10-04-2023, 00:04:33,    147,    0.0,    7.7,   0.00,   0.00, 1011.0,   78.6, -999.0
10-04-2023, 00:04:43,    146,    0.0,    7.7,   0.00,   0.01, 1011.0,   78.6, -999.0
10-04-2023, 00:04:52,    146,    0.0,    7.6,   0.00,   0.00, 1011.0,   78.8, -999.0
10-04-2023, 00:05:02,    146,    0.0,    7.7,   0.00,   0.00, 1011.0,   78.8, -999.0
10-04-2023, 00:05:13,    148,    0.2,    7.8,   0.00,   0.00, 1011.1,   79.0, -999.0
10-04-2023, 00:05:23,    148,    0.2,    7.7,   0.00,   0.00, 1011.1,   79.2, -999.0
10-04-2023, 00:05:32,    157,    0.3,    7.6,   0.00,   0.01, 1011.1,   79.3, -999.0
10-04-2023, 00:05:42,    159,    0.3,    7.6,   0.00,   0.00, 1011.1,   79.3, -999.0
10-04-2023, 00:05:53,    159,    0.0,    7.5,   0.00,   0.00, 1011.0,   79.2, -999.0
10-04-2023, 00:06:02,    157,    0.2,    7.6,   0.00,   0.00, 1011.1,   79.7, -999.0
10-04-2023, 00:06:12,    157,    0.1,    7.6,   0.00,   0.00, 1011.0,   79.8, -999.0
10-04-2023, 00:06:22,    157,    0.3,    7.6,   0.00,   0.00, 1011.2,   80.1, -999.0
10-04-2023, 00:06:32,    156,    0.8,    7.6,   0.00,   0.00, 1011.1,   80.0, -999.0
10-04-2023, 00:06:42,    157,    1.7,    7.5,   0.00,   0.01, 1011.2,   80.0, -999.0
10-04-2023, 00:06:52,    125,    1.4,    7.6,   0.00,   0.00, 1011.2,   79.6, -999.0
10-04-2023, 00:07:03,    142,    1.3,    7.5,   0.00,   0.00, 1011.1,   79.6, -999.0
10-04-2023, 00:07:12,    206,    0.3,    7.6,   0.00,   0.00, 1011.1,   79.7, -999.0
10-04-2023, 00:07:22,    190,    0.2,    7.6,   0.00,   0.00, 1011.1,   79.9, -999.0
10-04-2023, 00:07:32,    174,    0.1,    7.6,   0.00,   0.00, 1011.1,   79.9, -999.0
10-04-2023, 00:07:42,    167,    0.3,    7.6,   0.00,   0.00, 1011.1,   80.2, -999.0
10-04-2023, 00:07:52,    167,    0.1,    7.5,   0.00,   0.00, 1011.1,   80.2, -999.0
10-04-2023, 00:08:02,    167,    0.0,    7.5,   0.00,   0.00, 1011.0,   79.9, -999.0
10-04-2023, 00:08:12,    168,    0.0,    7.5,   0.00,   0.00, 1011.0,   80.3, -999.0
10-04-2023, 00:08:22,    167,    0.3,    7.4,   0.00,   0.00, 1011.0,   80.6, -999.0
10-04-2023, 00:08:32,    167,    0.0,    7.5,   0.00,   0.00, 1011.0,   80.4, -999.0
10-04-2023, 00:08:42,    167,    0.0,    7.5,   0.00,   0.00, 1011.0,   80.5, -999.0
10-04-2023, 00:08:52,    167,    0.1,    7.5,   0.00,   0.00, 1011.0,   80.9, -999.0
10-04-2023, 00:09:02,    167,    0.0,    7.5,   0.00,   0.00, 1011.0,   80.9, -999.0
10-04-2023, 00:09:12,    167,    0.0,    7.5,   0.00,   0.00, 1011.0,   81.2, -999.0
10-04-2023, 00:09:22,    166,    0.0,    7.4,   0.00,   0.01, 1011.0,   81.2, -999.0
10-04-2023, 00:09:32,    167,    0.0,    7.3,   0.00,   0.00, 1011.0,   81.1, -999.0
10-04-2023, 00:09:42,    166,    0.0,    7.4,   0.00,   0.00, 1011.0,   81.0, -999.0
10-04-2023, 00:09:52,    167,    0.0,    7.5,   0.00,   0.00, 1011.0,   81.0, -999.0
10-04-2023, 00:10:02,    166,    0.0,    7.5,   0.00,   0.00, 1011.0,   81.2, -999.0
10-04-2023, 00:10:12,    167,    0.0,    7.4,   0.00,   0.00, 1011.0,   81.2, -999.0
10-04-2023, 00:10:22,    172,    0.5,    7.4,   0.00,   0.00, 1011.1,   81.6, -999.0
10-04-2023, 00:10:32,    178,    0.2,    7.5,   0.00,   0.00, 1011.0,   81.6, -999.0
10-04-2023, 00:10:42,    179,    0.0,    7.4,   0.00,   0.00, 1011.0,   81.4, -999.0
10-04-2023, 00:10:52,    176,    0.0,    7.5,   0.00,   0.00, 1011.0,   81.8, -999.0
10-04-2023, 00:11:02,    175,    0.0,    7.4,   0.00,   0.00, 1011.0,   81.9, -999.0
10-04-2023, 00:11:12,    160,    1.3,    7.4,   0.00,   0.00, 1011.1,   81.9, -999.0
10-04-2023, 00:11:22,    178,    0.4,    7.5,   0.00,   0.00, 1011.1,   81.5, -999.0
10-04-2023, 00:11:32,    176,    0.0,    7.5,   0.00,   0.00, 1011.0,   81.0, -999.0
10-04-2023, 00:11:42,    162,    1.1,    7.6,   0.00,   0.00, 1011.1,   81.5, -999.0
10-04-2023, 00:11:52,    163,    0.1,    7.5,   0.00,   0.01, 1011.0,   81.3, -999.0
10-04-2023, 00:12:02,    163,    0.1,    7.6,   0.00,   0.00, 1011.1,   81.5, -999.0
10-04-2023, 00:12:12,    163,    0.0,    7.5,   0.00,   0.00, 1011.0,   81.5, -999.0
10-04-2023, 00:12:22,    162,    0.0,    7.6,   0.00,   0.00, 1011.0,   81.6, -999.0
10-04-2023, 00:12:32,    163,    0.0,    7.6,   0.00,   0.00, 1011.0,   81.8, -999.0
10-04-2023, 00:12:41,    166,    0.2,    7.5,   0.00,   0.00, 1011.1,   82.3, -999.0
10-04-2023, 00:12:52,    166,    0.0,    7.5,   0.00,   0.00, 1011.0,   82.2, -999.0
10-04-2023, 00:13:02,    166,    0.0,    7.5,   0.00,   0.01, 1011.0,   82.2, -999.0
10-04-2023, 00:13:11,    167,    0.0,    7.5,   0.00,   0.00, 1011.0,   82.2, -999.0
10-04-2023, 00:13:21,    168,    0.0,    7.4,   0.00,   0.00, 1011.0,   82.1, -999.0
10-04-2023, 00:13:32,    168,    0.0,    7.5,   0.00,   0.00, 1011.0,   82.0, -999.0
10-04-2023, 00:13:42,    167,    0.0,    7.5,   0.00,   0.00, 1011.0,   82.0, -999.0
10-04-2023, 00:13:51,    167,    0.0,    7.5,   0.00,   0.00, 1011.0,   82.0, -999.0
10-04-2023, 00:14:02,    168,    0.0,    7.5,   0.00,   0.00, 1011.0,   82.2, -999.0
10-04-2023, 00:14:12,    167,    0.0,    7.5,   0.00,   0.00, 1011.0,   82.4, -999.0
10-04-2023, 00:14:21,    169,    0.0,    7.5,   0.00,   0.00, 1011.0,   82.5, -999.0
10-04-2023, 00:14:31,    169,    0.0,    7.4,   0.00,   0.00, 1011.0,   82.7, -999.0
10-04-2023, 00:14:42,    137,    0.2,    7.5,   0.00,   0.00, 1011.0,   82.9, -999.0
10-04-2023, 00:14:52,    136,    0.0,    7.4,   0.00,   0.00, 1011.0,   83.1, -999.0
10-04-2023, 00:15:01,    133,    0.2,    7.5,   0.00,   0.01, 1011.1,   83.5, -999.0
10-04-2023, 00:15:11,    136,    0.0,    7.5,   0.00,   0.00, 1011.0,   83.3, -999.0
10-04-2023, 00:15:22,    137,    0.0,    7.4,   0.00,   0.00, 1011.0,   83.3, -999.0
10-04-2023, 00:15:31,    186,    0.2,    7.5,   0.00,   0.00, 1011.0,   83.3, -999.0
10-04-2023, 00:15:41,    185,    0.1,    7.6,   0.00,   0.00, 1011.0,   83.2, -999.0
10-04-2023, 00:15:51,    185,    0.0,    7.4,   0.00,   0.00, 1011.0,   82.8, -999.0
10-04-2023, 00:16:01,    186,    0.0,    7.4,   0.00,   0.00, 1011.0,   83.0, -999.0
10-04-2023, 00:16:11,    121,    0.8,    7.5,   0.00,   0.00, 1011.1,   83.3, -999.0
10-04-2023, 00:16:21,    121,    0.6,    7.5,   0.00,   0.00, 1011.1,   83.3, -999.0
10-04-2023, 00:16:31,    121,    0.0,    7.4,   0.00,   0.01, 1011.0,   82.9, -999.0
10-04-2023, 00:16:41,    121,    0.0,    7.5,   0.00,   0.00, 1011.0,   82.9, -999.0
10-04-2023, 00:16:51,    121,    0.0,    7.4,   0.00,   0.00, 1011.0,   83.1, -999.0
10-04-2023, 00:17:01,    226,    0.8,    7.5,   0.00,   0.00, 1011.1,   83.5, -999.0
10-04-2023, 00:17:11,    189,    0.1,    7.4,   0.00,   0.00, 1011.0,   83.3, -999.0
10-04-2023, 00:17:21,    217,    0.3,    7.5,   0.00,   0.00, 1011.1,   83.2, -999.0
10-04-2023, 00:17:31,    208,    0.3,    7.5,   0.00,   0.00, 1011.1,   83.4, -999.0
10-04-2023, 00:17:41,    179,    0.9,    7.5,   0.00,   0.00, 1011.1,   83.3, -999.0
10-04-2023, 00:17:51,    147,    0.7,    7.5,   0.00,   0.00, 1011.1,   83.3, -999.0
10-04-2023, 00:18:01,    150,    0.8,    7.6,   0.00,   0.01, 1011.1,   83.3, -999.0
10-04-2023, 00:18:11,    208,    0.5,    7.5,   0.00,   0.00, 1011.1,   83.4, -999.0
10-04-2023, 00:18:21,    116,    0.7,    7.5,   0.00,   0.00, 1011.1,   83.4, -999.0
10-04-2023, 00:18:31,    172,    1.3,    7.5,   0.00,   0.00, 1011.1,   83.4, -999.0
10-04-2023, 00:18:41,    171,    1.7,    7.5,   0.00,   0.00, 1011.1,   83.3, -999.0
10-04-2023, 00:18:51,    143,    0.4,    7.5,   0.00,   0.00, 1011.1,   83.2, -999.0
10-04-2023, 00:19:01,    171,    0.0,    7.5,   0.00,   0.00, 1011.0,   83.1, -999.0
10-04-2023, 00:19:11,    171,    0.0,    7.5,   0.00,   0.00, 1011.0,   83.3, -999.0
10-04-2023, 00:19:21,    165,    0.1,    7.5,   0.00,   0.00, 1011.0,   83.5, -999.0
10-04-2023, 00:19:31,    165,    0.0,    7.4,   0.00,   0.00, 1011.0,   83.4, -999.0
10-04-2023, 00:19:41,    165,    0.0,    7.3,   0.00,   0.00, 1011.0,   83.4, -999.0
10-04-2023, 00:19:51,    165,    0.0,    7.5,   0.00,   0.00, 1011.0,   83.7, -999.0
10-04-2023, 00:20:01,    166,    0.0,    7.5,   0.00,   0.01, 1011.0,   83.8, -999.0
10-04-2023, 00:20:11,    166,    0.2,    7.5,   0.00,   0.00, 1011.1,   83.9, -999.0
10-04-2023, 00:20:21,    180,    0.2,    7.5,   0.00,   0.00, 1011.1,   84.0, -999.0
10-04-2023, 00:20:31,    180,    0.0,    7.4,   0.00,   0.00, 1011.0,   83.6, -999.0
10-04-2023, 00:20:41,    175,    0.6,    7.5,   0.00,   0.00, 1011.1,   83.8, -999.0
10-04-2023, 00:20:51,    169,    2.3,    7.5,   0.00,   0.00, 1011.1,   83.7, -999.0
10-04-2023, 00:21:00,    138,    1.9,    7.5,   0.00,   0.00, 1011.1,   83.5, -999.0
10-04-2023, 00:21:11,    197,    1.1,    7.4,   0.00,   0.00, 1011.1,   83.3, -999.0
10-04-2023, 00:21:21,    115,    1.0,    7.6,   0.00,   0.00, 1011.1,   83.6, -999.0
10-04-2023, 00:21:31,    125,    0.4,    7.6,   0.00,   0.00, 1011.0,   83.6, -999.0
10-04-2023, 00:21:40,    128,    0.2,    7.5,   0.00,   0.00, 1011.0,   83.5, -999.0
10-04-2023, 00:21:51,    128,    0.5,    7.6,   0.00,   0.00, 1011.1,   83.7, -999.0
10-04-2023, 00:22:01,    129,    0.0,    7.5,   0.00,   0.00, 1010.9,   83.3, -999.0
10-04-2023, 00:22:10,    130,    0.1,    7.6,   0.00,   0.00, 1011.0,   83.4, -999.0
10-04-2023, 00:22:20,    131,    0.1,    7.5,   0.00,   0.01, 1011.0,   83.1, -999.0
10-04-2023, 00:22:31,    130,    0.0,    7.4,   0.00,   0.00, 1011.0,   83.2, -999.0
10-04-2023, 00:22:41,    130,    0.0,    7.5,   0.00,   0.00, 1010.9,   83.5, -999.0
10-04-2023, 00:22:50,    131,    0.0,    7.5,   0.00,   0.00, 1010.9,   83.5, -999.0
10-04-2023, 00:23:01,    131,    0.0,    7.5,   0.00,   0.00, 1010.9,   83.7, -999.0
10-04-2023, 00:23:11,    131,    0.6,    7.5,   0.00,   0.00, 1011.0,   84.2, -999.0
10-04-2023, 00:23:20,    133,    0.1,    7.5,   0.00,   0.00, 1011.0,   84.0, -999.0
10-04-2023, 00:23:30,    170,    0.3,    7.5,   0.00,   0.00, 1011.0,   84.3, -999.0
10-04-2023, 00:23:41,    163,    0.7,    7.6,   0.00,   0.00, 1011.0,   84.2, -999.0
10-04-2023, 00:23:50,    173,    0.1,    7.5,   0.00,   0.00, 1010.9,   83.7, -999.0
10-04-2023, 00:24:00,    211,    0.1,    7.5,   0.00,   0.01, 1010.9,   83.5, -999.0
10-04-2023, 00:24:10,    195,    0.4,    7.5,   0.00,   0.00, 1011.0,   83.7, -999.0
10-04-2023, 00:24:21,    167,    0.0,    7.5,   0.00,   0.00, 1010.9,   83.4, -999.0
10-04-2023, 00:24:30,    142,    2.8,    7.6,   0.00,   0.00, 1011.0,   83.7, -999.0
10-04-2023, 00:24:40,    132,    2.1,    7.5,   0.00,   0.00, 1011.0,   83.7, -999.0
10-04-2023, 00:24:50,    141,    1.2,    7.5,   0.00,   0.00, 1011.0,   83.8, -999.0
10-04-2023, 00:25:00,    192,    0.8,    7.5,   0.00,   0.00, 1010.9,   83.8, -999.0
10-04-2023, 00:25:10,    192,    0.0,    7.4,   0.00,   0.00, 1011.0,   83.8, -999.0
10-04-2023, 00:25:20,    192,    0.0,    7.5,   0.00,   0.01, 1010.9,   83.7, -999.0
10-04-2023, 00:25:30,    192,    0.0,    7.5,   0.00,   0.00, 1010.9,   83.8, -999.0
10-04-2023, 00:25:40,    195,    0.0,    7.5,   0.00,   0.00, 1010.9,   84.3, -999.0
10-04-2023, 00:25:50,    189,    0.0,    7.5,   0.00,   0.00, 1010.8,   84.4, -999.0
10-04-2023, 00:26:00,    189,    0.0,    7.5,   0.00,   0.00, 1010.8,   84.4, -999.0
10-04-2023, 00:26:10,    189,    0.0,    7.5,   0.00,   0.00, 1010.9,   84.5, -999.0
10-04-2023, 00:26:20,    188,    0.1,    7.5,   0.00,   0.00, 1010.9,   85.1, -999.0
10-04-2023, 00:26:30,    163,    1.0,    7.6,   0.00,   0.00, 1010.9,   85.1, -999.0
10-04-2023, 00:26:40,    154,    1.3,    7.5,   0.00,   0.00, 1010.9,   84.7, -999.0
10-04-2023, 00:26:50,    133,    0.7,    7.5,   0.00,   0.00, 1010.9,   84.4, -999.0
10-04-2023, 00:27:00,    145,    1.1,    7.5,   0.00,   0.00, 1010.9,   84.7, -999.0
10-04-2023, 00:27:10,    141,    1.2,    7.5,   0.00,   0.00, 1011.0,   84.7, -999.0
10-04-2023, 00:27:20,    140,    0.7,    7.6,   0.00,   0.00, 1010.9,   84.4, -999.0
10-04-2023, 00:27:30,    140,    0.0,    7.6,   0.00,   0.00, 1010.9,   84.1, -999.0
10-04-2023, 00:27:40,    143,    0.1,    7.5,   0.00,   0.00, 1010.9,   84.5, -999.0
10-04-2023, 00:27:50,    140,    0.1,    7.5,   0.00,   0.01, 1010.8,   84.6, -999.0
10-04-2023, 00:28:00,    169,    0.5,    7.6,   0.00,   0.00, 1010.9,   84.8, -999.0
10-04-2023, 00:28:10,    168,    0.0,    7.5,   0.00,   0.00, 1010.8,   84.6, -999.0
10-04-2023, 00:28:20,    168,    0.0,    7.5,   0.00,   0.00, 1010.8,   84.6, -999.0
10-04-2023, 00:28:30,    186,    0.5,    7.5,   0.00,   0.00, 1010.9,   84.9, -999.0
10-04-2023, 00:28:40,    140,    2.1,    7.4,   0.00,   0.00, 1010.9,   84.7, -999.0
10-04-2023, 00:28:50,    230,    2.1,    7.5,   0.00,   0.00, 1010.9,   84.3, -999.0
10-04-2023, 00:29:00,    166,    1.0,    7.5,   0.00,   0.00, 1010.9,   84.1, -999.0
10-04-2023, 00:29:10,    167,    0.3,    7.5,   0.00,   0.00, 1010.9,   84.0, -999.0
10-04-2023, 00:29:20,    137,    1.0,    7.7,   0.00,   0.00, 1010.9,   84.3, -999.0
10-04-2023, 00:29:30,    185,    1.0,    7.6,   0.00,   0.00, 1010.9,   84.4, -999.0
10-04-2023, 00:29:40,    185,    0.5,    7.5,   0.00,   0.00, 1010.9,   84.3, -999.0
10-04-2023, 00:29:50,    183,    0.0,    7.5,   0.00,   0.00, 1010.8,   84.0, -999.0
10-04-2023, 00:29:59,    124,    1.2,    7.6,   0.00,   0.00, 1010.9,   84.4, -999.0
10-04-2023, 00:30:10,    157,    1.3,    7.6,   0.00,   0.00, 1010.9,   84.5, -999.0
10-04-2023, 00:30:20,    157,    1.0,    7.6,   0.00,   0.00, 1010.9,   84.2, -999.0
10-04-2023, 00:30:30,    157,    0.0,    7.5,   0.00,   0.01, 1010.8,   84.2, -999.0
10-04-2023, 00:30:39,    158,    0.0,    7.6,   0.00,   0.00, 1010.8,   84.3, -999.0
10-04-2023, 00:30:50,    161,    0.9,    7.6,   0.00,   0.00, 1010.9,   84.7, -999.0
10-04-2023, 00:31:00,    131,    1.6,    7.6,   0.00,   0.00, 1010.9,   84.6, -999.0
10-04-2023, 00:31:09,    144,    1.0,    7.6,   0.00,   0.00, 1010.9,   84.7, -999.0
10-04-2023, 00:31:19,    143,    0.0,    7.4,   0.00,   0.00, 1010.8,   84.6, -999.0
10-04-2023, 00:31:30,    144,    0.0,    7.5,   0.00,   0.00, 1010.8,   84.7, -999.0
10-04-2023, 00:31:40,    144,    0.0,    7.5,   0.00,   0.01, 1010.7,   84.9, -999.0
10-04-2023, 00:31:49,    144,    0.0,    7.5,   0.00,   0.00, 1010.8,   85.0, -999.0
10-04-2023, 00:31:59,    161,    0.2,    7.5,   0.00,   0.00, 1010.8,   85.2, -999.0
10-04-2023, 00:32:10,    169,    1.9,    7.6,   0.00,   0.00, 1010.9,   85.4, -999.0
10-04-2023, 00:32:19,    168,    0.3,    7.5,   0.00,   0.00, 1010.8,   85.2, -999.0
10-04-2023, 00:32:29,    168,    0.0,    7.5,   0.00,   0.00, 1010.8,   85.1, -999.0
10-04-2023, 00:32:39,    168,    0.0,    7.5,   0.00,   0.00, 1010.8,   85.4, -999.0
10-04-2023, 00:32:49,    163,    1.9,    7.5,   0.00,   0.01, 1010.9,   85.7, -999.0
10-04-2023, 00:32:59,    163,    0.1,    7.5,   0.00,   0.00, 1010.8,   85.3, -999.0
10-04-2023, 00:33:09,    173,    0.0,    7.5,   0.00,   0.00, 1010.7,   85.2, -999.0
10-04-2023, 00:33:20,    220,    0.4,    7.5,   0.00,   0.00, 1010.9,   85.4, -999.0
10-04-2023, 00:33:29,    216,    0.2,    7.4,   0.00,   0.00, 1010.9,   85.6, -999.0
10-04-2023, 00:33:39,    212,    0.2,    7.5,   0.00,   0.00, 1010.8,   85.6, -999.0
10-04-2023, 00:33:49,    192,    0.5,    7.6,   0.00,   0.00, 1010.8,   85.7, -999.0
10-04-2023, 00:33:59,     95,    0.3,    7.5,   0.00,   0.00, 1010.8,   85.7, -999.0
10-04-2023, 00:34:09,    137,    0.0,    7.5,   0.00,   0.01, 1010.8,   85.5, -999.0
10-04-2023, 00:34:19,    174,    0.6,    7.5,   0.00,   0.00, 1010.9,   85.6, -999.0
10-04-2023, 00:34:29,    170,    0.0,    7.5,   0.00,   0.00, 1010.8,   85.3, -999.0
10-04-2023, 00:34:39,    134,    0.6,    7.6,   0.00,   0.00, 1010.8,   85.4, -999.0
10-04-2023, 00:34:49,    228,    0.3,    7.5,   0.00,   0.00, 1010.8,   85.4, -999.0
10-04-2023, 00:34:59,    185,    0.7,    7.5,   0.00,   0.00, 1010.9,   85.6, -999.0
10-04-2023, 00:35:09,    189,    0.3,    7.5,   0.00,   0.01, 1010.9,   85.4, -999.0
10-04-2023, 00:35:19,    191,    0.0,    7.5,   0.00,   0.00, 1010.8,   85.2, -999.0
10-04-2023, 00:35:29,    191,    0.0,    7.5,   0.00,   0.00, 1010.8,   85.4, -999.0
10-04-2023, 00:35:39,    191,    0.0,    7.4,   0.00,   0.00, 1010.8,   85.3, -999.0
10-04-2023, 00:35:49,    179,    0.3,    7.4,   0.00,   0.00, 1010.8,   85.7, -999.0
10-04-2023, 00:35:59,    179,    0.1,    7.5,   0.00,   0.00, 1010.8,   85.7, -999.0
10-04-2023, 00:36:09,    179,    0.0,    7.4,   0.00,   0.01, 1010.7,   85.6, -999.0
10-04-2023, 00:36:19,    177,    0.8,    7.5,   0.00,   0.00, 1010.9,   86.2, -999.0
10-04-2023, 00:36:29,    159,    0.2,    7.5,   0.00,   0.00, 1010.8,   86.2, -999.0
10-04-2023, 00:36:39,    159,    0.0,    7.4,   0.00,   0.00, 1010.8,   86.0, -999.0
10-04-2023, 00:36:49,    161,    0.0,    7.4,   0.00,   0.00, 1010.8,   86.3, -999.0
10-04-2023, 00:36:59,    172,    0.5,    7.5,   0.00,   0.01, 1010.9,   86.5, -999.0
10-04-2023, 00:37:09,    173,    0.1,    7.3,   0.00,   0.00, 1010.8,   86.4, -999.0
10-04-2023, 00:37:19,    172,    0.0,    7.4,   0.00,   0.00, 1010.8,   86.3, -999.0
10-04-2023, 00:37:29,    172,    0.0,    7.5,   0.00,   0.00, 1010.8,   86.3, -999.0
10-04-2023, 00:37:39,    172,    0.0,    7.5,   0.00,   0.00, 1010.8,   86.5, -999.0
10-04-2023, 00:37:49,    146,    0.2,    7.5,   0.00,   0.00, 1010.8,   86.8, -999.0
10-04-2023, 00:37:59,    146,    0.1,    7.5,   0.00,   0.00, 1010.8,   86.9, -999.0
10-04-2023, 00:38:09,    146,    0.0,    7.4,   0.00,   0.01, 1010.7,   86.8, -999.0
10-04-2023, 00:38:19,    146,    0.0,    7.4,   0.00,   0.00, 1010.8,   86.8, -999.0
10-04-2023, 00:38:29,    165,    0.8,    7.5,   0.00,   0.00, 1010.8,   87.0, -999.0
10-04-2023, 00:38:39,    199,    0.9,    7.6,   0.00,   0.00, 1010.9,   87.1, -999.0
10-04-2023, 00:38:49,    175,    0.1,    7.5,   0.00,   0.00, 1010.8,   86.9, -999.0
10-04-2023, 00:38:58,    175,    0.0,    7.5,   0.00,   0.00, 1010.8,   86.7, -999.0
10-04-2023, 00:39:09,    160,    0.0,    7.5,   0.00,   0.00, 1010.8,   86.9, -999.0
10-04-2023, 00:39:19,    163,    0.3,    7.5,   0.00,   0.00, 1010.9,   87.3, -999.0
10-04-2023, 00:39:29,    163,    0.0,    7.5,   0.00,   0.00, 1010.8,   87.4, -999.0
10-04-2023, 00:39:38,    203,    0.6,    7.6,   0.00,   0.01, 1010.9,   87.9, -999.0
10-04-2023, 00:39:49,    209,    0.2,    7.5,   0.00,   0.00, 1010.9,   87.9, -999.0
10-04-2023, 00:39:59,    213,    0.1,    7.5,   0.00,   0.00, 1010.9,   87.5, -999.0
10-04-2023, 00:40:08,    182,    0.7,    7.6,   0.00,   0.00, 1010.9,   87.4, -999.0
10-04-2023, 00:40:18,    186,    0.1,    7.5,   0.00,   0.00, 1010.8,   87.3, -999.0
10-04-2023, 00:40:29,    207,    0.1,    7.5,   0.00,   0.00, 1010.9,   87.3, -999.0
10-04-2023, 00:40:39,    188,    0.6,    7.5,   0.00,   0.00, 1010.9,   87.5, -999.0
10-04-2023, 00:40:48,    161,    1.4,    7.5,   0.00,   0.00, 1010.9,   87.6, -999.0
10-04-2023, 00:40:58,    164,    0.1,    7.5,   0.00,   0.00, 1010.8,   87.4, -999.0
10-04-2023, 00:41:09,    169,    0.2,    7.5,   0.00,   0.00, 1010.8,   87.5, -999.0
10-04-2023, 00:41:18,    143,    0.6,    7.4,   0.00,   0.00, 1010.8,   87.3, -999.0
10-04-2023, 00:41:28,    175,    1.2,    7.5,   0.00,   0.00, 1010.9,   87.5, -999.0
10-04-2023, 00:41:38,    222,    2.3,    7.6,   0.00,   0.00, 1010.9,   87.6, -999.0
10-04-2023, 00:41:48,    150,    1.6,    7.6,   0.00,   0.00, 1010.9,   87.4, -999.0
10-04-2023, 00:41:58,    158,    1.0,    7.6,   0.00,   0.00, 1010.9,   87.3, -999.0
10-04-2023, 00:42:08,    171,    0.6,    7.6,   0.00,   0.01, 1010.9,   87.3, -999.0
10-04-2023, 00:42:19,    173,    0.1,    7.5,   0.00,   0.00, 1010.8,   87.1, -999.0
10-04-2023, 00:42:28,    173,    0.2,    7.5,   0.00,   0.00, 1010.9,   87.4, -999.0
10-04-2023, 00:42:38,    173,    0.0,    7.5,   0.00,   0.00, 1010.8,   87.2, -999.0
10-04-2023, 00:42:48,    173,    0.0,    7.5,   0.00,   0.00, 1010.8,   87.3, -999.0
10-04-2023, 00:42:58,    173,    0.0,    7.5,   0.00,   0.00, 1010.7,   87.4, -999.0
10-04-2023, 00:43:08,    173,    0.0,    7.5,   0.00,   0.00, 1010.7,   87.7, -999.0
10-04-2023, 00:43:18,    190,    0.3,    7.5,   0.00,   0.00, 1010.8,   88.0, -999.0
10-04-2023, 00:43:28,    187,    2.0,    7.6,   0.00,   0.00, 1010.8,   88.1, -999.0
10-04-2023, 00:43:38,    148,    2.5,    7.6,   0.00,   0.00, 1010.8,   87.7, -999.0
10-04-2023, 00:43:48,    180,    1.2,    7.6,   0.00,   0.00, 1010.8,   87.3, -999.0
10-04-2023, 00:43:58,    144,    1.1,    7.6,   0.00,   0.00, 1010.8,   87.2, -999.0
10-04-2023, 00:44:08,    150,    2.4,    7.6,   0.00,   0.00, 1010.8,   87.3, -999.0
10-04-2023, 00:44:18,    213,    0.7,    7.6,   0.00,   0.00, 1010.8,   87.5, -999.0
10-04-2023, 00:44:28,    213,    0.1,    7.5,   0.00,   0.00, 1010.8,   87.4, -999.0
10-04-2023, 00:44:38,    214,    0.0,    7.6,   0.00,   0.00, 1010.7,   87.3, -999.0
10-04-2023, 00:44:48,    213,    0.3,    7.6,   0.00,   0.00, 1010.8,   87.7, -999.0
10-04-2023, 00:44:58,    213,    0.0,    7.6,   0.00,   0.01, 1010.7,   87.6, -999.0
10-04-2023, 00:45:08,    212,    0.0,    7.4,   0.00,   0.00, 1010.7,   87.6, -999.0
10-04-2023, 00:45:18,    213,    0.0,    7.5,   0.00,   0.00, 1010.8,   87.7, -999.0
10-04-2023, 00:45:28,    209,    0.2,    7.5,   0.00,   0.00, 1010.8,   87.9, -999.0
10-04-2023, 00:45:38,    207,    0.3,    7.4,   0.00,   0.00, 1010.8,   88.2, -999.0
10-04-2023, 00:45:48,    183,    0.1,    7.5,   0.00,   0.00, 1010.8,   88.2, -999.0
10-04-2023, 00:45:58,    182,    0.1,    7.5,   0.00,   0.00, 1010.8,   88.1, -999.0
10-04-2023, 00:46:08,    175,    0.0,    7.5,   0.00,   0.00, 1010.7,   88.2, -999.0
10-04-2023, 00:46:18,    184,    0.1,    7.5,   0.00,   0.00, 1010.8,   88.5, -999.0
10-04-2023, 00:46:28,    179,    0.7,    7.7,   0.00,   0.00, 1010.9,   88.7, -999.0
10-04-2023, 00:46:38,    178,    0.1,    7.5,   0.00,   0.00, 1010.8,   88.6, -999.0
10-04-2023, 00:46:48,    176,    0.0,    7.6,   0.00,   0.00, 1010.8,   88.7, -999.0